COSMOS 2433 (720)

Last updated on Jan. 17, 2020, 4:32 a.m. UTC

1 32275U 07052A   20015.57806699 -.00000031  00000-0  10000-3 0  9990
2 32275  65.9310  34.0491 0005488 255.6993 164.4583  2.13104443 95131
UTC
Height (km)
Latitude
Longitude
Inclination
Orbital Period
UTC large
Height (km)
Speed (km/s)
/
Latitude / Longitude
Inclination (degrees)
Orbital Period (minutes)
Azimuth
Elevation
Range (km)
Doppler Factor
iOS Compass Heading
iOS Angle

Next 30 passes for location: Hong Kong

Rise time Rise Azimuth (degrees) Set time Set Azimuth (degrees) Duration Max altitude (degrees)

No matching passes for this satellites